Location: D�rnast
(49.6426°N, 11.9755°E)
Time: 20:37:20
(UTC+00:00)

H-2A R/B - Pass Details

Date: 24 January 2021
Orbit: 577 x 655 km, 98.5° (Epoch: 01 March)

Event Time Altitude Azimuth Distance (km) Brightness Sun altitude
Rises 16:19:15 0° 19° (NNE) 2,967 5.1 -4.4°
Reaches altitude 10° 16:21:35 10° 26° (NNE) 2,042 4.3 -4.8°
Maximum altitude 16:25:51 45° 99° (E) 864 2.5 -5.4°
Drops below altitude 10° 16:30:00 10° 173° (S) 1,981 4.9 -6.0°
Sets 16:32:13 0° 180° (S) 2,868 5.8 -6.4°
